Main page
METAR-TAF:

METAR-TAF

Airports :

Passo della Cisa, Italy

latitude: 44-26N, longitude: 009-56E, elevation: 1039 m

Current weather observation

The report was made 2 hours and 20 minutes ago, at 16:55 UTC
Wind 8 kt from the North/Northeast
Temperature 4°C
Humidity 87%
Pressure 1016 hPa
Visibility 10 km or more
no clouds below 1500 m and no cumulonimbus

METAR: LIMT 171655Z 02008KT CAVOK 04/02 Q1016 RMK SKC MON LIB VAL NIL VIS MIN 9999

Time: 20:15 (19:15 UTC)


TAF: missing

Weather observations and forecasts of more than 4000 airports (METAR and TAF reports).

The available stations are represented by yellow and red dots on the map.

Hover mouse over dot to see the name of the station.

Then click to see weather observations and forecasts.

To change the map : click on the green buttons with a black cross to zoom in, on the green button with a dash to zoom out, or on the green arrows for adjacent maps.


METAR-TAF: